User: anonymous   Login
Location: Unspecified
(0.0000°N, 0.0000°E)
Time: 01:50:18
(UTC+00:00)
Language:

TBA - TO BE ASSIGNED - Orbit

View from above orbital plane
View from above orbital plane
View from above satellite
View from above satellite

Ground track
Ground track

The orbit is defined by the following mean orbital elements,

1 68352U          26145.37618741 +.00000000 +00000-0 +25658-4 0 00002
2 68352  54.9797 129.0816 0010420  79.1040 281.1130 14.73368265    03
Epoch (UTC): 25 May 2026 09:01:42
Eccentricity: 0.0010420
inclination: 54.9797°
perigee height: 643 km
apogee height: 658 km
right ascension of ascending node: 129.0816°
argument of perigee: 79.1040°
revolutions per day: 14.73368265
mean anomaly at epoch: 281.1130°

The dashed part of the orbit path shows where the satellite is in the earth's shadow,  

DLR